Wind_Speed
40 42 43 44 45 45 45 45 45 45 44 42 41 41 43 43 44 46 48 51 52 51 50 49 49 49 49 49 49 49 49 49 49 49 49 50 52 54 56 58 59 60 60 62 63 63 64 62 61 59 58 58 57 57 56 56 56 56 56 56 57 57 57 57 58 58 59 59 59 60 61 61 62 63 63 64 65 65 66 66 67 67 68 69 69 70
43 45 45 45 45 45 45 44 44 45 45 44 44 44 46 47 49 51 53 54 53 52 50 49 48 48 48 48 48 48 48 48 48 49 51 53 55 58 59 60 61 63 64 65 65 64 63 61 60 59 58 57 57 56 56 56 56 57 57 57 58 58 58 59 59 60 60 61 62 62 63 64 64 65 66 66 67 67 68 68 69 69 70 71 71 72
42 43 44 43 44 44 44 44 44 44 45 45 46 47 48 49 51 52 53 53 52 51 50 48 47 47 47 47 47 46 46 46 47 50 53 56 58 59 61 62 63 65 65 65 64 62 60 59 58 57 57 56 56 56 56 57 57 58 58 59 59 59 60 61 61 62 63 63 64 65 65 66 67 67 68 69 69 70 70 71 71 72 72 73 74 74
40 42 43 42 42 43 43 43 43 44 45 46 47 48 49 50 50 51 51 51 51 50 49 48 47 47 47 48 47 46 46 46 48 51 54 56 58 59 61 62 63 63 63 61 60 58 57 56 55 55 55 56 56 57 57 58 58 59 59 60 61 61 62 63 63 64 65 65 66 67 67 68 69 69 70 70 71 72 72 73 73 74 74 75 76 76
42 43 43 43 43 43 43 43 44 45 46 47 48 49 49 50 50 50 51 50 49 48 47 47 47 48 49 49 49 49 49 50 52 53 55 57 58 59 60 60 60 59 58 57 56 55 54 54 54 55 56 56 57 58 59 59 60 61 61 62 63 63 64 64 65 66 66 67 68 68 69 69 70 71 71 72 72 73 74 74 75 76 76 77 78 78
45 45 45 44 44 44 44 44 45 45 46 46 47 48 48 49 51 51 51 50 49 47 46 46 46 48 49 50 50 51 52 53 54 55 56 57 57 57 57 57 57 56 55 55 54 54 54 55 55 56 57 58 59 59 60 61 61 62 63 63 64 65 65 66 66 67 67 68 69 69 70 70 71 72 72 73 74 74 75 76 76 77 78 79 79 80
47 46 46 45 45 45 45 45 45 45 45 45 46 47 48 50 52 52 52 51 49 46 44 44 46 47 48 50 51 52 53 54 55 55 56 56 56 55 55 55 55 54 54 54 54 55 55 56 57 58 59 59 60 61 62 62 63 64 64 65 65 66 66 67 67 68 68 69 69 70 71 71 72 73 73 74 75 76 76 77 78 78 79 80 81 81
46 46 46 46 46 46 46 45 45 44 44 45 46 48 49 51 53 53 52 51 49 47 45 45 46 48 50 51 53 54 55 55 55 55 55 54 54 54 54 54 54 54 54 55 56 56 57 58 59 60 60 61 62 63 63 64 64 65 65 66 66 67 67 67 68 68 69 70 70 71 71 72 73 73 74 75 76 76 77 78 78 79 80 80 81 82
44 45 45 45 45 45 45 44 44 44 43 44 46 48 50 51 52 52 51 50 49 48 48 49 50 51 53 54 55 56 56 55 54 53 53 53 53 53 53 54 54 55 56 57 57 58 59 60 61 61 62 63 63 64 64 65 65 66 66 66 67 67 67 68 68 69 69 70 71 71 72 72 73 74 74 75 75 76 76 77 78 78 79 79 80 81
43 43 44 44 44 43 42 42 42 42 42 44 46 48 50 50 51 50 50 50 50 50 51 52 53 54 55 55 56 55 54 54 53 52 52 52 53 53 54 55 56 57 58 58 59 60 61 61 62 63 63 64 64 65 65 65 66 66 66 67 67 67 68 68 68 69 69 70 70 71 71 72 72 72 73 73 74 74 74 75 75 76 76 77 77 78
41 41 42 42 41 41 40 40 40 41 42 44 46 48 49 49 49 49 49 49 50 50 51 52 53 53 53 53 53 52 51 51 51 52 52 53 54 55 56 57 58 59 59 60 61 61 62 63 63 64 64 65 65 65 65 66 66 66 66 66 67 67 67 68 68 68 68 69 69 69 69 70 70 70 70 70 71 71 71 71 72 72 72 73 73 73
39 40 40 39 39 39 39 40 41 42 44 45 47 48 48 48 48 47 47 48 48 48 48 48 49 49 49 49 49 49 50 50 51 52 54 54 55 56 57 58 59 60 61 61 62 63 63 64 64 64 65 65 65 65 65 65 65 65 66 66 66 66 66 66 66 67 67 67 67 67 66 66 66 66 66 66 66 66 67 67 67 67 66 67 66 67
38 38 38 37 38 38 39 41 42 44 45 46 46 46 46 45 45 45 44 44 44 44 44 44 45 46 46 47 48 49 50 51 53 54 55 56 57 58 59 60 61 61 62 62 63 63 64 64 64 64 65 65 65 65 65 65 65 65 65 65 65 65 64 64 64 64 64 63 63 63 63 62 62 62 62 61 61 61 61 60 60 60 60 59 59 59
35 36 36 36 37 39 40 41 43 44 44 43 43 42 42 41 41 41 41 41 42 42 43 44 45 46 47 48 49 50 52 53 54 56 56 57 58 59 60 60 61 62 62 62 63 63 63 64 64 64 64 64 64 64 64 64 64 63 63 63 63 62 62 62 61 61 60 60 59 59 58 58 57 57 56 56 55 55 54 54 53 53 53 52 52 52
33 35 36 37 38 38 39 39 39 39 39 38 38 38 38 39 39 40 40 41 42 43 45 46 47 48 49 50 51 52 53 55 56 57 57 58 59 59 60 60 61 62 62 62 62 63 63 63 63 63 63 63 63 63 63 62 62 62 61 61 60 60 59 59 58 57 56 56 55 54 53 53 52 51 51 50 50 49 48 48 47 47 47 47 47 47
33 34 35 35 34 34 34 34 34 34 34 35 36 37 37 38 39 40 41 42 44 45 46 47 48 49 50 51 52 53 54 55 56 57 57 58 58 59 59 60 61 61 61 62 62 62 63 63 63 63 63 62 62 62 61 61 60 60 59 58 58 57 56 55 54 53 52 51 50 50 49 48 48 47 46 46 45 44 44 44 44 44 44 44 44 45
28 28 28 28 28 29 30 31 32 33 34 35 36 37 38 39 40 41 43 44 45 46 47 48 49 50 51 52 52 53 54 55 56 57 57 57 58 59 59 59 60 61 61 61 62 62 62 62 62 62 61 61 60 60 59 59 58 57 56 55 54 53 52 51 50 49 49 48 47 46 46 45 44 44 43 43 42 42 42 42 42 43 43 43 44 45
24 25 26 27 28 29 30 31 32 34 35 36 37 38 39 40 42 43 44 45 46 47 48 49 50 50 51 52 53 53 54 55 56 57 57 57 58 59 59 59 60 60 61 61 61 61 61 61 61 60 60 59 58 58 57 56 55 54 53 52 51 50 49 49 48 47 46 46 45 45 44 44 43 43 42 42 42 42 42 42 42 43 43 44 44 45
25 26 27 28 29 30 32 33 34 35 36 37 38 39 41 42 43 44 45 46 47 48 49 49 50 51 52 52 53 54 54 55 56 57 57 57 58 58 59 59 59 60 60 60 60 60 59 59 59 58 57 57 56 55 54 53 52 52 51 50 49 48 48 47 47 46 45 45 45 44 44 43 43 43 42 42 42 42 42 43 43 44 44 45 45 46
26 27 28 30 31 32 33 34 35 36 38 39 40 41 42 43 44 45 46 47 48 49 49 50 51 52 52 53 54 54 55 55 56 57 57 57 58 58 58 58 58 59 59 59 58 58 57 57 56 56 55 54 53 53 52 51 50 50 49 49 48 47 47 47 46 46 45 45 45 44 44 44 43 43 43 43 43 43 43 43 44 44 44 45 46 46
28 29 30 31 32 33 34 35 37 38 39 40 41 42 43 44 45 46 47 48 49 50 51 51 52 53 53 53 54 54 55 55 56 56 57 57 57 57 57 57 57 57 57 57 56 55 55 54 54 53 52 52 51 50 50 49 49 49 48 48 48 47 47 47 46 46 46 45 45 45 44 44 44 43 43 43 43 43 43 43 44 44 45 45 46 46
29 30 31 32 33 35 36 37 38 39 40 41 42 43 44 45 46 47 48 49 50 51 51 52 53 53 53 53 54 54 54 55 55 56 56 56 56 56 56 55 55 55 55 54 54 53 52 52 51 51 50 50 49 49 49 48 48 48 48 47 47 47 47 47 46 46 46 46 45 45 44 44 44 43 43 43 43 43 43 43 44 44 44 45 45 46
31 32 32 33 35 36 37 38 39 40 41 42 43 44 45 46 47 48 49 50 50 51 52 52 53 53 53 53 53 54 54 54 54 55 55 55 55 55 54 53 52 52 52 52 51 51 50 50 49 49 49 49 48 48 48 48 48 48 47 47 47 47 47 46 46 46 46 46 45 45 45 44 44 44 43 43 43 43 43 43 43 43 43 44 44 44
32 33 34 35 36 37 38 39 40 41 42 43 44 45 47 48 48 49 50 50 51 51 52 52 53 53 53 53 53 53 54 54 53 53 53 53 53 53 52 51 50 50 50 50 49 48 48 48 48 48 48 48 48 47 47 47 47 47 47 47 47 46 46 46 46 46 46 46 45 45 44 44 44 44 43 43 43 43 43 43 43 42 42 42 42 43
33 34 35 36 37 38 39 40 41 42 43 45 46 47 48 48 49 50 50 51 51 52 52 52 53 53 53 53 53 53 53 53 52 52 51 51 52 52 51 49 48 48 49 48 48 47 47 47 47 47 47 47 47 47 47 47 46 46 46 46 46 46 46 46 46 46 45 45 45 44 44 43 43 43 43 43 43 43 42 42 42 41 41 41 40 40
35 36 37 38 39 40 41 42 43 44 45 46 47 48 48 49 50 50 51 51 51 52 52 53 53 53 53 53 53 53 53 52 52 51 50 50 50 50 50 48 47 46 47 47 46 46 46 46 46 46 46 46 46 46 46 46 46 45 45 45 45 45 45 45 45 45 45 44 44 43 43 42 42 42 42 42 42 41 41 41 41 40 40 39 39 39
37 38 39 39 40 41 42 43 44 45 46 47 48 49 49 50 50 51 51 52 52 53 53 53 53 54 54 54 53 53 53 52 51 50 49 49 49 49 48 47 46 45 45 45 45 44 44 45 45 45 45 45 45 44 44 44 44 45 45 45 45 45 45 44 44 44 43 43 42 42 41 41 40 40 40 40 40 40 40 39 39 39 38 37 37 37
38 39 40 41 42 43 44 45 46 47 48 49 49 50 51 51 51 52 52 53 53 54 54 54 54 54 54 54 54 53 53 52 51 50 49 48 47 47 47 46 44 43 43 43 43 43 43 43 43 43 43 43 43 43 43 43 44 44 44 44 44 44 44 44 43 43 43 42 41 41 40 39 39 39 38 38 38 38 38 38 37 37 36 36 36 35
40 41 42 42 43 44 45 46 47 48 49 50 51 52 52 53 53 53 54 54 54 54 55 55 55 55 54 54 54 54 53 51 50 49 48 47 46 46 45 44 43 41 40 41 41 42 42 42 42 42 42 42 42 42 43 43 43 43 43 43 43 43 43 43 43 42 42 41 40 39 39 38 37 37 37 36 36 36 36 36 36 36 35 35 34 34
41 42 43 44 45 46 47 48 49 50 51 52 53 54 54 55 55 55 55 55 55 55 55 55 55 55 55 54 54 53 52 51 50 49 47 46 45 45 44 42 41 40 39 38 39 40 41 41 41 41 41 41 42 42 42 42 42 42 43 43 43 43 43 43 42 41 41 40 39 39 38 37 36 36 35 35 35 35 35 35 35 35 34 34 33 33
43 44 45 46 47 48 49 50 51 52 53 54 55 55 56 56 56 56 56 56 56 56 56 56 55 55 54 54 53 52 52 51 49 47 45 44 43 43 42 40 39 39 38 37 37 38 39 40 40 40 40 40 41 41 41 41 41 42 42 42 43 43 42 42 41 41 40 39 39 38 37 36 35 34 34 34 34 34 34 34 34 34 34 33 33 32
45 46 47 48 49 50 51 52 53 54 55 56 56 57 57 57 57 56 56 56 56 56 56 56 55 55 54 53 52 51 51 50 48 46 43 42 41 41 40 38 38 38 37 36 35 35 37 38 39 39 39 40 40 40 41 41 41 41 42 42 42 42 42 42 41 40 40 39 38 37 36 35 35 34 34 33 34 34 34 34 34 34 34 33 32 32
46 47 48 49 51 52 53 54 55 55 56 57 57 57 57 57 57 56 56 56 56 56 56 55 55 54 54 53 52 50 49 48 46 44 42 40 40 39 38 37 37 36 36 36 35 35 35 36 37 38 38 39 39 40 40 40 41 41 41 41 42 42 42 41 41 40 39 39 38 37 36 35 35 34 34 33 34 34 34 35 35 35 34 33 33 32
48 49 50 51 52 53 54 55 56 56 57 57 57 57 57 57 57 57 57 57 57 57 56 55 54 53 52 51 50 49 48 46 44 42 41 39 38 38 37 36 36 36 35 35 35 35 35 35 35 36 37 38 39 39 40 40 40 41 41 41 41 41 41 41 41 40 39 39 38 37 36 35 35 34 34 34 34 34 35 35 35 35 34 34 33 32
49 50 51 52 53 54 55 56 56 57 57 57 57 57 57 57 57 57 57 57 57 57 56 55 54 52 51 50 48 47 46 45 43 41 39 38 37 37 36 36 35 35 35 35 35 35 35 35 35 35 36 36 37 38 39 39 40 40 41 41 41 41 41 40 40 39 39 38 38 37 36 36 35 35 34 34 34 35 35 35 35 35 35 34 33 32
51 52 53 54 54 55 56 56 57 57 57 58 58 57 57 58 58 58 58 58 58 57 56 54 53 51 50 48 47 46 44 43 41 40 38 37 36 36 36 35 35 35 35 35 35 35 35 35 35 35 35 35 36 37 38 39 39 40 40 41 41 41 41 40 40 39 39 38 37 37 36 35 35 35 34 34 35 35 35 35 35 35 35 34 33 32
52 53 54 55 56 56 57 57 57 58 58 58 58 58 58 58 59 59 59 58 57 56 54 53 51 50 48 47 45 44 43 42 40 39 38 37 36 36 35 35 35 35 35 35 35 35 35 35 35 35 35 35 35 36 37 37 38 39 40 40 40 40 40 40 40 39 38 37 37 36 36 35 34 34 34 34 34 35 35 35 35 35 34 33 33 32
53 54 55 56 57 57 57 58 58 58 58 58 59 59 59 60 60 59 59 58 56 54 53 51 50 48 46 45 44 43 42 41 40 39 38 37 37 36 35 35 35 35 35 36 36 36 36 36 35 35 35 35 35 35 36 36 37 38 39 39 40 40 40 40 39 39 38 37 36 35 35 34 34 33 33 34 34 34 35 35 35 34 34 33 32 31
55 55 56 57 57 58 58 58 59 59 59 59 60 60 61 61 60 59 58 56 54 53 51 49 47 46 45 44 43 42 41 40 40 39 38 38 37 36 36 36 36 36 36 36 36 37 36 36 36 35 35 35 35 35 36 36 37 37 38 38 39 39 39 39 39 38 38 37 36 35 34 34 33 33 33 33 33 34 34 34 34 34 34 33 32 31
56 56 57 58 58 58 59 59 60 60 60 61 61 61 61 60 59 58 56 54 52 50 49 47 46 45 44 43 42 41 41 40 40 39 39 38 37 37 36 36 36 36 37 37 37 37 37 37 37 36 36 36 35 35 36 36 37 37 38 38 38 38 38 39 39 38 38 37 36 35 34 33 33 32 32 32 33 33 33 33 33 33 33 33 32 31
56 57 58 58 59 59 60 60 61 61 62 62 62 61 60 59 57 55 54 52 50 48 47 45 44 43 43 42 42 41 41 41 40 40 39 39 38 37 37 37 37 37 37 37 38 38 38 38 37 37 37 36 36 36 36 37 37 38 38 37 37 37 37 38 38 38 37 36 36 35 34 33 32 32 32 32 32 33 33 33 33 33 33 32 31 31
57 58 59 59 60 60 61 62 62 63 63 62 61 60 58 57 55 53 51 49 48 46 45 44 43 42 42 42 42 42 41 41 41 40 40 39 39 38 38 38 38 38 38 38 38 38 38 38 38 38 38 37 37 37 37 37 38 38 38 38 37 37 37 37 38 37 37 36 35 35 34 33 32 31 31 32 32 32 32 33 32 32 32 31 31 30
58 59 60 60 61 62 62 63 63 62 62 61 59 58 56 54 52 51 49 47 46 45 44 43 42 42 42 42 42 42 42 41 41 41 40 40 40 39 39 39 39 39 39 39 39 39 39 39 39 39 39 38 38 38 38 38 38 39 39 38 38 37 37 37 37 37 37 36 35 35 34 33 32 31 31 31 32 32 32 32 32 32 31 31 30 30
59 60 61 62 62 63 63 63 62 61 60 59 57 56 54 52 51 49 47 46 44 43 42 42 41 41 41 41 42 42 42 42 42 41 41 41 40 40 40 40 40 40 39 39 39 39 39 39 39 39 39 39 39 39 39 39 39 39 39 39 38 38 37 37 37 36 36 36 35 35 34 33 32 31 31 31 31 32 32 32 32 32 31 31 30 29
61 62 62 63 63 63 63 62 61 59 58 57 55 54 52 50 49 47 45 44 43 42 42 41 41 41 41 41 42 42 42 42 42 42 42 42 41 41 41 41 41 41 40 40 40 40 40 40 40 40 40 40 40 40 40 40 39 39 39 39 39 38 38 37 37 36 35 35 35 34 33 33 32 31 31 30 31 31 32 32 32 32 31 31 30 29
62 63 63 64 63 62 61 60 59 57 56 55 53 52 50 49 47 45 44 43 42 42 41 41 41 41 41 41 41 42 42 42 42 43 43 43 42 42 42 42 42 41 41 41 40 40 40 40 40 41 41 41 40 40 40 40 40 40 40 40 39 39 38 38 37 36 35 35 34 34 33 33 32 31 30 30 30 31 31 32 32 32 32 31 30 29
63 64 64 63 62 61 60 58 57 55 54 53 51 50 49 47 45 44 43 42 41 41 41 41 40 41 41 41 41 41 42 42 43 43 43 43 43 43 43 43 42 42 42 41 41 41 41 41 41 41 41 41 41 41 41 41 41 41 40 40 40 39 39 38 38 37 36 35 34 33 33 32 31 31 30 30 30 30 30 31 32 32 32 31 30 29
64 64 63 62 61 60 58 57 55 54 52 51 50 49 47 46 44 43 42 41 41 40 40 40 40 41 41 41 41 42 42 42 43 43 43 43 43 43 43 43 43 42 42 42 41 41 41 42 42 42 42 42 42 42 42 42 42 42 41 41 41 40 39 39 38 37 36 35 34 33 33 32 31 31 30 29 29 29 30 30 31 32 32 32 31 30
64 63 62 61 60 58 56 55 53 52 51 49 48 47 46 44 43 42 41 40 40 40 40 40 40 41 41 41 42 42 42 42 43 43 43 43 43 43 43 43 43 43 42 42 42 42 42 42 42 43 43 43 43 43 42 42 42 42 42 42 41 41 40 39 38 37 36 35 34 33 33 32 31 31 30 29 28 28 29 29 30 32 32 32 32 31
64 62 61 60 58 56 55 53 52 50 49 48 47 45 44 43 42 41 40 40 39 39 39 40 40 41 41 41 42 42 42 42 42 43 43 43 43 43 43 43 43 43 43 42 42 42 42 42 42 43 43 44 44 44 43 43 43 43 43 42 42 42 41 40 39 37 36 35 34 34 33 32 32 31 30 29 29 28 28 28 29 31 32 33 32 32
63 61 60 58 57 55 53 52 50 49 48 46 45 44 43 42 41 40 40 39 39 39 39 39 40 40 41 41 41 42 42 42 42 42 43 43 43 43 43 43 43 43 43 43 42 42 42 42 42 43 44 44 44 44 44 44 43 43 43 43 42 42 41 40 39 38 37 35 35 34 33 33 32 31 31 30 29 28 27 28 28 30 31 32 32 32
Wind_Direction
258 258 261 265 267 269 270 270 270 271 272 272 271 270 271 272 273 275 278 281 283 284 283 282 281 280 279 278 277 276 276 276 277 278 278 278 277 277 277 277 277 277 278 280 282 284 286 288 289 290 289 288 287 286 285 284 284 283 282 282 281 281 281 280 280 279 279 278 278 277 277 276 275 275 274 274 273 273 272 272 271 271 271 270 270 270
262 263 265 267 269 270 271 272 272 273 274 274 273 271 271 272 274 276 279 281 283 283 283 282 281 280 278 277 277 277 278 278 279 279 278 278 277 277 278 278 279 280 281 282 283 284 285 286 287 288 287 287 286 285 284 284 283 283 282 282 282 282 281 281 281 280 280 280 279 279 278 278 277 277 276 276 275 275 274 274 273 273 272 272 271 271
264 267 269 270 271 271 272 273 274 275 276 277 276 276 276 276 277 278 280 282 283 284 284 283 283 282 282 281 282 282 281 281 280 279 278 277 277 277 278 279 280 281 282 282 283 283 284 285 286 286 286 285 285 284 284 283 283 283 283 282 282 282 282 282 281 281 281 280 280 280 279 279 278 278 277 277 276 276 275 275 274 274 273 273 272 272
266 269 271 271 272 272 273 275 276 277 278 278 279 279 279 279 280 281 282 284 285 285 285 286 286 287 288 289 289 288 286 283 280 279 278 278 278 278 279 279 280 281 281 282 283 284 285 285 286 285 285 285 284 284 284 284 284 283 283 283 283 283 283 282 282 282 281 281 281 280 280 279 279 278 278 277 277 277 276 276 275 275 274 273 273 272
268 270 271 272 273 273 274 276 277 278 279 280 280 281 281 281 281 282 283 284 285 285 286 288 290 291 292 292 292 291 290 287 285 283 282 282 281 281 281 281 281 282 283 284 285 285 286 286 285 285 285 285 285 284 284 284 284 284 284 284 284 283 283 283 282 282 282 281 281 280 280 280 279 279 278 278 277 277 276 276 275 275 274 273 273 272
268 270 271 272 273 274 275 276 277 279 280 280 280 281 281 281 281 282 283 284 284 286 288 290 290 290 290 289 289 289 288 287 286 285 284 284 283 283 283 283 284 284 285 286 286 286 286 286 286 285 285 285 285 285 285 285 285 284 284 284 284 283 283 283 283 282 282 281 281 281 280 280 279 279 278 278 277 277 276 276 275 274 274 273 273 272
268 269 271 272 273 274 275 276 277 278 279 278 278 278 278 279 281 283 284 284 284 285 286 286 286 285 284 284 284 284 285 285 285 285 284 284 284 285 285 286 286 287 287 287 287 287 287 286 286 286 286 286 286 286 285 285 285 285 285 284 284 284 284 283 283 283 282 282 281 281 281 280 280 279 278 278 277 277 276 275 275 274 273 273 272 272
268 269 270 271 273 274 275 276 277 277 277 276 275 276 277 280 282 284 285 284 283 282 281 280 279 279 280 281 282 283 284 285 286 286 286 286 287 287 287 287 288 288 288 288 287 287 287 287 287 287 287 286 286 286 286 285 285 285 285 285 285 284 284 284 284 283 283 282 282 281 281 280 280 279 278 278 277 276 276 275 274 274 273 272 272 271
267 268 269 271 272 274 275 276 276 276 275 275 275 277 280 283 284 285 285 283 282 280 279 278 278 279 280 281 283 284 286 287 288 288 288 288 288 289 289 289 289 288 288 288 288 288 288 288 288 287 287 287 287 287 286 286 286 286 286 286 286 285 285 285 284 284 283 283 282 282 281 280 280 279 278 278 277 276 275 275 274 273 273 272 271 271
266 267 268 270 271 273 274 274 275 275 274 275 277 279 282 284 285 285 284 283 282 281 281 281 281 281 282 283 284 286 287 288 288 289 289 289 290 290 290 290 289 289 289 289 289 289 289 288 288 288 288 288 287 287 287 287 287 287 287 287 286 286 286 285 285 284 284 283 282 282 281 280 280 279 278 278 277 276 275 275 274 273 273 272 272 271
265 266 267 269 270 271 272 273 273 273 274 276 278 281 283 284 285 285 284 283 283 282 282 282 283 283 284 285 286 287 288 289 289 289 290 290 290 290 290 290 290 289 289 289 289 289 289 289 289 288 288 288 288 288 288 288 288 288 287 287 287 286 286 285 285 284 284 283 283 282 281 281 280 279 278 277 277 276 275 275 274 274 273 273 272 272
265 266 267 268 270 271 271 272 273 274 276 278 280 282 283 284 284 285 284 284 284 284 284 285 285 286 287 288 289 289 290 290 290 290 290 290 290 290 290 290 290 290 290 290 290 289 289 289 289 289 289 289 289 289 289 289 288 288 288 288 287 287 286 286 285 285 284 283 283 282 281 281 280 279 278 278 277 276 276 275 275 274 274 273 273 273
266 267 268 270 271 271 272 273 274 276 278 280 281 282 283 284 285 285 286 287 287 288 288 289 289 289 290 290 291 291 291 291 291 290 290 290 290 290 290 290 290 290 290 290 290 290 289 289 289 289 289 289 289 289 289 289 289 289 288 288 288 287 287 286 285 285 284 283 283 282 281 280 280 279 278 278 277 276 276 276 275 275 274 274 274 274
269 270 271 272 272 273 274 275 277 278 280 281 283 284 285 285 286 287 288 289 290 291 291 291 291 291 291 291 292 292 292 291 291 290 290 290 290 290 290 290 290 290 290 290 290 290 290 290 290 290 290 290 290 290 290 290 290 289 289 288 288 287 287 286 285 285 284 283 282 282 281 280 279 279 278 278 277 277 276 276 276 275 275 275 275 275
272 273 273 273 274 276 277 279 280 282 283 284 285 286 287 288 289 290 291 291 292 292 292 291 291 291 291 292 292 291 291 290 290 290 290 290 290 290 290 290 290 290 290 290 291 291 291 291 291 291 291 291 291 291 291 291 290 290 289 289 288 287 287 286 285 284 284 283 282 282 281 280 280 279 279 278 278 277 277 277 276 276 276 276 276 276
275 276 276 277 279 280 282 283 285 286 287 287 288 289 290 291 292 292 292 292 292 292 292 292 291 291 291 291 291 291 290 290 290 290 290 290 291 291 291 291 291 291 291 291 292 292 292 292 292 292 292 292 292 292 291 291 291 290 289 289 288 287 287 286 285 285 284 283 283 282 281 281 280 280 279 279 278 277 277 276 276 276 276 276 276 276
281 283 285 287 288 288 289 289 290 290 291 291 291 292 293 293 293 293 292 292 292 291 291 291 291 290 291 290 290 290 290 290 290 291 291 292 292 292 292 292 292 292 293 293 293 293 293 293 293 293 293 293 293 292 292 292 291 290 290 289 288 288 287 286 286 285 284 284 283 282 282 281 280 279 279 278 277 276 276 276 276 275 276 276 275 275
293 294 295 295 295 294 293 293 293 293 293 293 293 293 293 293 292 292 291 291 291 291 291 291 291 291 291 292 292 292 292 292 292 292 293 293 293 293 293 293 293 293 293 294 294 294 294 294 294 294 294 294 293 293 293 292 291 291 290 290 289 288 287 287 286 285 284 283 282 282 281 280 279 278 278 277 276 276 276 276 276 276 276 276 276 276
299 298 298 297 296 295 295 294 294 294 294 293 293 293 292 292 292 291 291 291 291 292 292 292 292 293 293 293 293 294 294 293 293 293 293 294 294 294 294 294 294 294 294 294 295 295 295 295 295 294 294 294 294 294 293 292 292 291 290 289 289 288 287 286 285 284 283 282 282 281 280 279 278 278 277 277 276 276 276 277 277 277 278 278 278 278
299 298 298 297 296 296 295 295 295 294 294 294 293 293 293 293 293 293 293 293 294 294 294 294 294 294 295 295 295 295 295 294 294 294 294 294 294 294 294 294 294 295 295 295 295 295 295 295 295 295 295 294 294 294 293 292 291 291 290 289 288 287 286 285 284 284 283 282 281 280 279 279 278 277 277 277 277 277 277 278 278 279 279 279 279 279
299 298 298 297 296 296 296 296 295 295 295 295 295 295 295 295 295 296 296 296 296 296 296 296 296 296 296 295 295 295 295 294 294 294 294 294 294 294 295 295 296 296 296 296 296 296 296 295 295 295 295 294 294 293 292 292 291 290 289 289 288 287 286 285 284 283 282 281 281 280 279 278 278 277 277 277 277 277 278 278 279 279 280 280 280 280
299 298 297 297 297 297 297 297 297 297 297 297 297 297 297 297 297 297 297 297 297 297 297 296 296 296 296 295 295 295 295 295 295 295 295 295 295 295 296 296 296 296 296 296 296 296 296 295 295 295 294 294 294 293 292 292 291 290 290 289 288 288 287 286 285 284 283 282 281 280 279 279 278 277 277 277 277 277 277 278 278 279 280 280 280 280
300 299 299 299 299 299 299 299 299 299 299 299 299 299 298 298 298 298 298 298 298 297 297 296 296 296 295 295 295 295 295 295 295 296 296 296 296 296 297 297 297 297 296 296 296 296 296 295 295 295 295 294 294 294 293 293 292 291 291 290 290 289 288 287 286 285 284 283 282 281 280 279 278 278 277 277 277 277 277 277 278 278 279 280 280 280
301 301 301 301 301 301 301 301 300 300 300 300 300 300 299 299 299 299 299 298 298 297 297 297 296 296 296 296 296 296 296 297 297 297 296 296 296 296 297 297 297 297 296 296 296 296 296 295 295 295 296 295 295 295 294 294 294 293 292 292 291 290 289 288 287 286 285 284 283 282 281 280 279 278 277 277 276 276 276 276 276 277 278 278 279 279
304 303 303 303 303 303 303 302 302 302 302 301 301 301 301 300 300 300 299 299 299 298 298 297 297 297 297 297 297 297 298 298 298 297 297 296 296 296 297 297 297 297 297 297 297 297 296 296 297 297 297 297 297 297 296 296 295 295 294 293 292 291 290 289 289 288 287 286 285 284 283 281 280 279 278 277 276 275 275 275 275 276 276 277 278 277
306 305 305 305 305 305 304 304 304 303 303 303 303 302 302 301 301 301 300 300 299 299 299 298 298 298 298 298 298 299 299 299 299 298 297 296 296 296 297 297 297 297 297 297 297 298 298 298 298 299 299 299 299 298 298 298 297 296 296 295 294 293 292 291 290 289 288 287 286 285 284 283 281 280 278 277 276 275 275 275 275 275 276 277 277 276
308 307 307 307 306 306 306 306 305 305 305 304 304 304 303 303 302 302 301 301 301 300 300 300 300 300 300 300 299 299 300 300 299 298 297 296 296 296 296 297 297 297 297 298 298 298 299 299 299 300 300 300 300 300 300 299 299 298 297 296 295 294 293 292 291 290 290 289 288 287 286 284 283 281 279 278 277 276 275 275 275 276 277 277 277 276
308 308 308 308 307 307 307 307 306 306 306 306 305 305 305 304 303 303 302 302 302 302 301 301 301 301 301 300 300 300 300 299 299 298 297 296 296 295 296 297 297 297 298 298 299 299 299 300 300 301 301 302 302 301 301 301 300 300 299 298 297 296 295 294 293 292 291 290 289 288 287 285 284 282 280 279 277 276 276 276 276 277 278 278 278 277
309 309 308 308 308 308 308 308 308 307 307 307 306 306 306 305 304 304 303 303 303 302 302 302 301 301 301 300 300 300 299 299 298 298 297 296 295 295 296 296 297 297 297 298 299 299 300 300 301 302 302 303 303 303 303 302 302 302 301 300 299 298 297 296 295 294 293 292 291 289 288 286 285 283 281 279 278 277 277 278 278 279 280 280 279 277
310 310 310 310 310 309 309 309 309 308 308 307 307 306 306 305 305 304 304 303 303 303 302 302 301 301 300 300 300 299 299 298 298 297 296 295 294 294 295 295 296 296 297 298 299 300 300 301 302 303 303 304 304 304 304 304 304 303 302 302 300 299 298 297 296 295 294 293 292 290 289 287 285 283 282 280 279 279 279 280 281 282 282 282 281 279
311 311 311 311 311 310 310 310 309 309 308 307 307 306 306 305 305 304 304 303 303 303 302 302 301 300 300 300 299 298 298 297 297 296 295 294 293 293 294 294 295 295 296 297 298 300 301 302 303 303 304 304 304 304 305 305 305 304 304 303 302 301 300 299 298 297 295 294 293 291 290 288 286 284 283 282 281 282 282 283 284 285 285 284 283 281
312 312 312 311 311 311 310 310 309 308 308 307 306 306 305 305 304 304 303 303 303 302 302 301 301 300 299 299 298 297 297 296 296 295 294 293 292 292 293 293 294 294 295 296 297 298 300 301 302 303 304 304 304 304 305 305 305 305 304 304 303 302 301 300 299 298 297 295 294 292 290 289 287 285 284 283 284 284 285 286 287 288 288 287 286 283
312 312 312 311 311 310 310 309 308 308 307 306 306 305 305 304 304 304 303 303 303 302 301 301 300 299 298 298 297 296 295 295 295 294 293 292 291 291 292 292 293 293 295 296 296 297 298 299 301 302 303 303 304 304 305 305 305 305 304 304 303 303 302 301 300 299 297 296 294 293 291 289 288 286 285 285 286 287 288 289 290 290 290 289 288 286
312 312 312 311 310 310 309 309 308 307 307 306 305 305 304 304 304 303 303 303 302 302 301 300 299 298 297 296 295 294 294 293 293 292 292 291 290 290 290 291 291 292 294 295 296 297 297 298 299 300 301 302 303 304 304 305 305 305 304 304 304 303 302 302 301 299 298 296 294 293 291 290 288 287 286 286 287 288 289 290 291 291 291 290 289 287
312 312 311 311 310 310 309 308 308 307 306 306 305 305 304 304 304 303 303 303 302 302 301 299 298 297 296 295 294 293 292 292 291 291 290 289 288 288 289 289 290 291 292 294 295 296 297 298 299 300 301 301 302 303 303 304 304 304 304 304 303 303 302 301 300 299 297 296 294 292 290 289 288 287 286 286 287 288 289 290 291 291 291 291 289 287
312 312 311 311 310 309 309 308 307 307 306 305 305 305 304 304 304 303 303 302 302 301 300 299 297 296 295 293 292 291 291 290 290 289 288 287 287 287 287 288 289 290 291 293 294 295 296 297 299 300 300 301 302 302 302 303 303 303 303 303 303 303 302 301 300 298 297 295 293 291 289 288 287 286 286 286 286 287 288 289 290 291 291 290 289 287
312 312 311 311 310 309 309 308 307 307 306 306 305 305 304 304 304 303 303 302 301 300 299 297 296 295 293 292 291 290 289 289 288 288 287 286 285 285 285 286 287 289 290 292 293 294 295 297 298 299 300 301 301 302 301 302 302 302 302 302 302 302 301 301 299 298 296 294 292 290 288 287 285 285 284 284 285 286 287 288 290 290 291 290 289 287
312 312 311 311 310 309 309 308 308 307 306 306 305 305 304 304 303 303 302 301 300 299 297 296 295 293 292 290 289 288 287 287 286 286 285 284 284 284 284 285 286 288 289 290 292 293 294 296 297 299 300 301 301 301 301 301 300 300 301 301 301 301 301 300 299 298 296 294 291 289 287 286 284 283 283 283 284 285 286 288 289 290 290 290 289 287
312 312 311 311 310 309 309 308 308 307 307 306 305 305 304 304 303 302 301 300 299 297 296 295 293 291 290 289 287 287 286 285 284 284 284 283 283 283 283 284 286 287 288 290 291 292 294 295 297 298 299 300 301 301 301 300 300 300 300 300 300 300 300 300 299 297 296 294 292 289 287 285 284 283 282 282 283 284 285 287 288 289 290 290 289 287
312 312 311 311 310 310 309 309 308 307 307 306 305 305 304 303 302 301 300 299 298 296 295 293 292 290 288 287 286 285 285 284 284 283 283 283 282 283 283 284 285 286 288 289 290 292 293 294 296 297 299 300 301 301 301 300 300 300 300 300 300 300 300 299 298 297 296 294 292 290 287 285 283 282 282 282 282 283 284 286 287 288 289 290 289 288
313 312 312 311 311 310 309 309 308 308 307 306 305 304 303 303 301 300 299 298 297 295 294 292 290 288 287 286 285 284 284 283 283 283 283 282 282 283 283 284 285 286 287 288 290 291 292 294 295 297 298 299 300 301 301 301 301 300 301 301 300 300 300 299 298 297 296 294 292 290 288 285 284 282 282 281 281 282 283 284 286 287 288 289 289 288
313 313 312 312 311 311 310 309 309 308 307 306 305 304 303 302 301 299 298 297 295 294 292 290 288 287 286 285 284 283 283 283 283 283 283 283 283 283 283 284 284 285 287 288 289 290 292 293 295 296 298 299 300 301 301 301 301 301 302 302 301 301 300 299 298 297 296 295 293 290 288 286 284 282 282 281 281 281 282 283 284 285 286 287 287 287
313 313 313 312 312 311 310 310 309 308 307 306 305 303 302 301 300 298 297 295 294 292 291 289 287 285 284 284 284 283 283 283 283 283 283 283 283 284 284 284 284 285 286 287 289 290 292 293 295 296 298 299 300 301 301 301 302 302 302 302 302 302 300 299 298 297 296 295 293 291 288 286 284 282 281 281 281 281 281 282 283 284 285 286 286 286
314 314 313 313 312 312 311 310 309 308 307 305 304 303 302 301 299 298 296 294 293 291 289 287 286 285 283 283 283 283 284 284 284 284 284 284 284 284 284 285 285 286 286 288 289 290 292 293 295 296 297 299 300 301 301 301 302 302 302 303 302 302 300 299 298 297 295 294 293 291 288 286 284 282 281 280 280 280 281 281 282 283 284 284 285 285
315 314 314 314 313 312 312 311 309 308 307 305 304 303 301 300 298 297 295 293 291 289 288 286 285 284 283 283 283 283 284 284 285 285 285 285 285 285 285 285 286 286 287 288 289 290 292 293 295 296 297 298 299 300 301 301 302 302 302 302 302 302 301 299 298 296 295 293 292 290 288 286 284 282 280 280 279 279 280 281 281 282 283 284 284 284
316 315 315 315 314 313 312 311 310 308 307 305 304 302 301 299 298 296 294 292 290 288 287 285 284 283 282 282 283 283 284 285 285 285 286 286 286 286 286 286 286 287 288 289 289 290 292 293 294 296 297 298 299 300 300 301 301 302 302 302 302 301 300 299 298 296 294 293 291 289 287 285 283 281 280 279 278 279 279 280 281 282 283 284 284 285
317 316 316 315 315 314 313 311 310 308 307 305 303 302 300 299 297 295 293 291 289 287 286 284 283 282 282 282 283 283 284 285 285 286 286 286 286 286 287 287 287 288 289 289 290 291 292 293 294 296 297 298 298 299 300 300 301 301 301 301 301 301 300 299 298 296 294 293 291 289 287 285 282 280 279 278 278 278 279 280 281 283 284 285 285 286
318 317 317 316 316 315 313 312 310 309 307 305 303 301 299 298 296 294 292 290 288 286 285 284 283 282 282 282 283 283 284 284 285 285 286 286 287 287 287 288 288 289 290 290 291 292 293 294 295 296 297 297 298 299 300 300 301 301 301 301 301 301 300 299 298 296 294 292 291 289 287 285 282 280 278 277 277 278 280 281 282 284 285 286 287 288
319 318 318 317 316 315 314 313 311 309 307 305 303 301 299 297 295 293 291 289 288 286 285 284 283 282 282 282 283 283 283 284 284 285 286 286 287 287 288 288 289 290 290 291 292 292 293 294 295 296 297 297 298 299 299 300 300 301 301 301 301 301 300 299 298 296 294 292 291 289 287 285 282 280 278 277 277 278 279 281 283 284 285 286 288 289
320 319 319 318 317 316 315 313 311 309 307 305 303 300 298 296 294 292 291 289 287 286 285 284 283 283 283 283 283 283 284 284 285 285 286 286 287 288 288 289 289 290 290 291 291 292 293 294 294 295 296 297 298 298 299 300 300 300 300 300 300 300 300 299 297 296 294 291 290 288 286 284 282 280 278 277 276 276 277 279 281 283 284 286 287 289
321 320 320 319 318 317 316 314 312 310 307 305 302 300 298 296 294 292 290 289 288 286 285 285 284 284 283 284 284 284 284 285 285 286 286 287 287 288 288 289 289 290 290 291 291 292 292 293 294 295 296 296 297 298 299 299 299 299 299 299 299 300 299 298 297 295 292 290 288 287 285 283 281 279 277 276 275 275 275 276 278 280 282 283 285 287
Height
5652 5652 5653 5653 5654 5654 5655 5655 5656 5656 5656 5657 5657 5658 5658 5657 5656 5654 5654 5653 5653 5653 5653 5652 5652 5651 5651 5650 5650 5650 5650 5649 5649 5648 5648 5647 5647 5646 5645 5644 5643 5642 5641 5640 5638 5638 5637 5636 5634 5633 5633 5632 5631 5631 5630 5629 5629 5628 5628 5628 5627 5627 5626 5625 5625 5624 5624 5623 5623 5623 5622 5621 5621 5620 5620 5619 5619 5619 5618 5618 5618 5618 5617 5617 5617 5617
5648 5648 5649 5650 5651 5651 5651 5652 5652 5652 5652 5652 5653 5653 5653 5652 5651 5651 5650 5650 5649 5649 5648 5648 5647 5647 5646 5646 5646 5646 5645 5645 5644 5644 5643 5643 5642 5641 5640 5639 5638 5637 5636 5634 5633 5633 5632 5631 5630 5629 5628 5627 5626 5625 5625 5624 5624 5623 5623 5622 5622 5621 5620 5620 5619 5618 5618 5617 5617 5616 5615 5615 5614 5613 5613 5612 5612 5611 5611 5611 5610 5610 5610 5610 5609 5609
5643 5644 5646 5647 5648 5648 5648 5648 5649 5649 5648 5648 5648 5649 5649 5648 5648 5647 5647 5646 5645 5644 5644 5643 5643 5642 5642 5641 5641 5641 5640 5639 5639 5639 5638 5638 5637 5636 5635 5633 5633 5632 5630 5629 5628 5628 5626 5625 5624 5623 5623 5622 5621 5620 5620 5619 5618 5618 5617 5616 5616 5615 5614 5613 5613 5612 5612 5611 5610 5609 5609 5608 5607 5606 5606 5605 5604 5604 5603 5603 5603 5602 5602 5602 5601 5601
5641 5642 5643 5644 5644 5644 5644 5645 5645 5645 5645 5645 5644 5644 5644 5644 5643 5643 5642 5642 5640 5640 5639 5638 5638 5637 5637 5636 5636 5635 5635 5634 5634 5634 5633 5632 5631 5630 5629 5628 5627 5626 5625 5624 5623 5622 5621 5620 5619 5618 5618 5617 5616 5615 5614 5614 5613 5612 5611 5611 5610 5609 5608 5608 5607 5606 5605 5604 5603 5603 5602 5601 5600 5599 5598 5598 5597 5596 5596 5595 5595 5594 5594 5593 5593 5593
5638 5638 5639 5640 5641 5641 5641 5641 5641 5641 5641 5641 5640 5640 5640 5640 5639 5638 5638 5637 5636 5635 5635 5634 5633 5632 5632 5631 5630 5630 5630 5630 5629 5628 5628 5627 5626 5625 5624 5623 5622 5621 5620 5619 5618 5617 5616 5615 5614 5613 5612 5611 5611 5610 5609 5608 5607 5607 5606 5605 5604 5603 5602 5601 5600 5599 5598 5598 5597 5596 5595 5594 5593 5592 5591 5590 5589 5589 5588 5588 5587 5586 5586 5585 5585 5584
5636 5636 5637 5637 5638 5638 5638 5638 5638 5638 5638 5637 5637 5636 5636 5635 5635 5634 5633 5633 5632 5631 5631 5630 5629 5628 5628 5628 5627 5627 5626 5626 5625 5624 5623 5622 5621 5619 5618 5617 5616 5615 5614 5613 5613 5612 5611 5610 5609 5608 5607 5606 5605 5604 5603 5603 5602 5601 5600 5599 5598 5597 5596 5595 5594 5593 5592 5591 5590 5588 5588 5587 5586 5585 5584 5583 5582 5581 5580 5579 5579 5578 5578 5577 5576 5576
5633 5634 5634 5634 5634 5634 5634 5634 5634 5635 5635 5634 5633 5633 5632 5631 5631 5630 5629 5629 5628 5628 5627 5627 5626 5625 5625 5624 5624 5623 5622 5622 5621 5619 5618 5617 5615 5614 5613 5612 5611 5610 5609 5608 5608 5607 5606 5605 5604 5603 5602 5601 5600 5599 5598 5597 5596 5595 5594 5593 5592 5591 5589 5588 5587 5586 5585 5584 5583 5581 5580 5579 5578 5577 5576 5575 5574 5573 5572 5571 5570 5570 5569 5568 5567 5567
5631 5631 5631 5631 5631 5631 5631 5631 5631 5631 5631 5631 5630 5629 5628 5628 5627 5626 5626 5625 5625 5624 5623 5623 5622 5622 5621 5620 5620 5619 5618 5617 5616 5614 5613 5612 5610 5609 5608 5607 5606 5605 5604 5603 5602 5601 5600 5599 5598 5597 5596 5595 5594 5593 5592 5591 5590 5589 5588 5587 5585 5584 5583 5582 5580 5579 5578 5577 5575 5574 5573 5572 5571 5569 5568 5567 5566 5565 5564 5563 5562 5561 5560 5559 5558 5557
5628 5628 5628 5628 5628 5628 5628 5628 5628 5628 5628 5627 5627 5626 5625 5624 5623 5623 5622 5621 5621 5620 5619 5618 5618 5617 5617 5616 5615 5614 5613 5612 5611 5609 5608 5607 5605 5604 5603 5602 5601 5600 5599 5598 5597 5596 5595 5594 5593 5592 5590 5589 5588 5587 5586 5585 5583 5583 5581 5580 5578 5577 5576 5575 5573 5572 5571 5569 5568 5567 5565 5564 5563 5562 5560 5559 5558 5557 5555 5554 5553 5552 5551 5550 5549 5548
5625 5625 5625 5625 5625 5625 5625 5625 5625 5625 5624 5623 5623 5622 5621 5621 5620 5619 5618 5618 5617 5616 5615 5614 5613 5613 5612 5611 5611 5610 5608 5607 5606 5604 5603 5601 5600 5599 5598 5597 5596 5594 5593 5592 5591 5590 5589 5588 5587 5586 5584 5583 5582 5581 5580 5578 5577 5576 5575 5573 5572 5571 5569 5568 5566 5565 5563 5562 5561 5559 5558 5557 5555 5554 5552 5551 5549 5548 5547 5546 5544 5543 5542 5541 5540 5539
5622 5623 5623 5623 5623 5623 5623 5622 5622 5622 5621 5620 5619 5618 5618 5617 5616 5615 5614 5614 5613 5613 5611 5610 5609 5608 5607 5607 5606 5605 5604 5602 5601 5599 5598 5597 5596 5594 5593 5592 5590 5589 5588 5587 5586 5584 5583 5582 5581 5580 5578 5577 5576 5575 5574 5572 5571 5570 5568 5567 5565 5564 5563 5561 5560 5558 5557 5555 5554 5552 5551 5549 5548 5546 5544 5543 5542 5540 5539 5538 5536 5535 5534 5533 5532 5531
5619 5620 5620 5620 5620 5620 5620 5619 5618 5618 5618 5617 5616 5615 5614 5614 5613 5612 5610 5610 5609 5609 5608 5606 5605 5604 5603 5602 5601 5600 5599 5598 5596 5594 5593 5592 5591 5590 5588 5586 5585 5583 5583 5581 5580 5579 5578 5576 5575 5573 5573 5571 5570 5569 5568 5566 5565 5563 5562 5561 5559 5558 5556 5554 5553 5551 5550 5548 5547 5545 5543 5542 5540 5539 5537 5536 5534 5533 5532 5530 5529 5528 5527 5526 5525 5524
5617 5617 5617 5617 5617 5617 5617 5616 5616 5615 5615 5614 5613 5612 5611 5610 5610 5608 5607 5606 5605 5605 5604 5602 5601 5600 5599 5598 5597 5596 5594 5593 5591 5589 5588 5587 5586 5585 5583 5581 5579 5578 5577 5576 5574 5573 5572 5570 5569 5568 5567 5565 5564 5563 5562 5560 5559 5557 5556 5554 5553 5551 5550 5548 5547 5545 5543 5542 5540 5538 5537 5535 5534 5532 5531 5529 5528 5526 5525 5524 5523 5521 5520 5519 5518 5518
5614 5614 5614 5614 5614 5614 5613 5613 5612 5612 5611 5611 5610 5609 5608 5607 5606 5605 5604 5603 5602 5601 5600 5598 5597 5596 5595 5594 5593 5592 5590 5588 5586 5584 5583 5582 5581 5580 5578 5576 5574 5573 5572 5570 5569 5567 5566 5565 5563 5562 5560 5559 5558 5557 5555 5554 5553 5551 5550 5548 5547 5545 5543 5542 5540 5539 5537 5536 5534 5533 5531 5529 5528 5526 5525 5523 5522 5520 5519 5518 5517 5516 5515 5514 5513 5513
5612 5612 5611 5611 5611 5610 5610 5610 5609 5608 5608 5607 5607 5605 5605 5604 5603 5602 5601 5599 5598 5597 5596 5594 5593 5592 5591 5590 5589 5588 5586 5583 5581 5580 5579 5578 5576 5575 5573 5570 5568 5567 5566 5565 5563 5561 5560 5559 5557 5555 5554 5553 5552 5551 5549 5548 5547 5545 5543 5542 5541 5539 5538 5536 5534 5533 5531 5530 5528 5527 5525 5523 5522 5521 5519 5518 5516 5515 5514 5513 5512 5511 5510 5509 5508 5508
5609 5608 5608 5608 5608 5607 5607 5606 5606 5605 5605 5604 5603 5602 5601 5600 5599 5598 5597 5595 5594 5593 5592 5590 5589 5588 5587 5586 5585 5584 5581 5578 5577 5575 5574 5573 5571 5570 5568 5565 5563 5561 5560 5559 5557 5555 5553 5552 5551 5549 5548 5547 5546 5544 5543 5542 5540 5539 5538 5536 5534 5533 5532 5530 5529 5527 5526 5524 5523 5521 5520 5518 5517 5515 5514 5513 5512 5511 5509 5508 5508 5507 5506 5505 5504 5503
5606 5606 5605 5605 5604 5604 5604 5603 5603 5602 5601 5600 5599 5599 5598 5597 5596 5595 5593 5592 5591 5589 5588 5587 5585 5584 5583 5582 5581 5580 5577 5574 5571 5570 5569 5568 5565 5564 5563 5560 5558 5555 5554 5553 5551 5549 5548 5546 5545 5543 5542 5541 5540 5538 5537 5536 5534 5533 5531 5530 5528 5527 5526 5524 5523 5522 5520 5519 5518 5516 5515 5513 5512 5511 5509 5508 5508 5507 5505 5504 5503 5503 5502 5501 5500 5500
5604 5603 5603 5603 5602 5602 5601 5601 5600 5599 5598 5597 5596 5595 5594 5593 5592 5591 5590 5589 5587 5586 5584 5583 5582 5580 5578 5577 5576 5574 5573 5569 5566 5564 5563 5562 5560 5558 5557 5555 5552 5550 5548 5547 5545 5543 5542 5540 5538 5537 5536 5535 5533 5532 5531 5529 5528 5527 5525 5524 5523 5521 5520 5519 5518 5517 5515 5514 5513 5511 5510 5509 5508 5507 5506 5504 5503 5502 5501 5500 5499 5498 5498 5497 5496 5495
5602 5601 5601 5600 5599 5599 5598 5598 5597 5596 5595 5594 5593 5592 5591 5590 5589 5588 5586 5585 5583 5582 5580 5579 5577 5576 5574 5573 5570 5569 5568 5564 5562 5559 5558 5557 5555 5553 5552 5549 5547 5545 5543 5541 5539 5538 5536 5534 5533 5531 5530 5529 5527 5526 5525 5523 5522 5521 5519 5518 5517 5516 5515 5514 5513 5512 5510 5509 5508 5507 5506 5505 5503 5503 5501 5500 5499 5498 5497 5496 5495 5494 5493 5493 5492 5491
5600 5599 5599 5598 5597 5596 5596 5595 5594 5593 5592 5591 5590 5589 5588 5587 5585 5583 5582 5581 5579 5578 5576 5574 5572 5571 5569 5568 5566 5564 5562 5560 5557 5554 5553 5552 5550 5548 5546 5544 5542 5539 5537 5536 5534 5532 5530 5528 5527 5525 5524 5523 5522 5520 5519 5518 5517 5515 5514 5513 5512 5511 5510 5509 5508 5507 5506 5505 5503 5503 5501 5500 5499 5498 5497 5496 5495 5494 5493 5492 5491 5490 5489 5488 5488 5487
5598 5597 5597 5596 5594 5594 5593 5592 5591 5589 5588 5587 5586 5585 5583 5582 5581 5579 5578 5576 5575 5573 5571 5569 5568 5566 5565 5563 5561 5559 5558 5555 5553 5550 5548 5546 5545 5543 5541 5539 5537 5534 5532 5530 5528 5527 5525 5523 5521 5520 5519 5518 5517 5515 5514 5513 5512 5510 5509 5508 5507 5506 5505 5504 5503 5502 5501 5500 5499 5498 5497 5496 5495 5494 5493 5492 5491 5490 5489 5488 5487 5486 5485 5484 5483 5482
5596 5595 5594 5593 5592 5591 5590 5589 5588 5586 5585 5583 5582 5581 5579 5578 5576 5575 5573 5572 5570 5568 5567 5565 5563 5562 5560 5558 5557 5554 5553 5551 5548 5545 5543 5540 5538 5537 5536 5534 5532 5529 5527 5525 5523 5522 5520 5518 5516 5515 5514 5513 5512 5510 5509 5508 5507 5506 5504 5503 5502 5501 5500 5499 5498 5497 5496 5495 5494 5493 5492 5491 5490 5489 5489 5488 5487 5486 5485 5484 5483 5482 5481 5480 5479 5478
5593 5592 5591 5590 5589 5588 5587 5585 5584 5583 5581 5580 5578 5577 5575 5574 5572 5571 5569 5568 5566 5564 5562 5560 5558 5557 5555 5553 5552 5550 5548 5546 5543 5540 5538 5535 5533 5531 5530 5529 5527 5524 5522 5520 5518 5517 5515 5513 5512 5510 5509 5508 5507 5505 5504 5503 5502 5501 5499 5498 5497 5496 5495 5494 5493 5492 5491 5490 5489 5488 5487 5487 5486 5485 5484 5483 5483 5482 5481 5480 5479 5478 5477 5476 5475 5474
5590 5589 5588 5587 5586 5584 5583 5582 5581 5579 5578 5576 5575 5573 5571 5569 5568 5566 5564 5563 5561 5559 5557 5555 5553 5552 5550 5549 5547 5545 5543 5542 5539 5536 5533 5530 5528 5526 5525 5524 5523 5520 5517 5515 5514 5512 5510 5508 5506 5506 5505 5503 5502 5500 5499 5498 5497 5496 5494 5493 5492 5491 5490 5489 5488 5487 5486 5485 5484 5483 5483 5482 5481 5480 5480 5479 5478 5478 5477 5476 5475 5474 5473 5473 5471 5470
5587 5586 5585 5583 5583 5581 5580 5578 5577 5575 5574 5572 5571 5569 5567 5565 5563 5561 5560 5558 5556 5554 5552 5550 5549 5547 5545 5544 5543 5540 5538 5537 5535 5532 5529 5526 5523 5521 5520 5520 5519 5516 5513 5510 5509 5508 5505 5503 5501 5500 5500 5498 5497 5496 5494 5493 5492 5491 5489 5488 5487 5486 5485 5484 5483 5482 5481 5480 5479 5478 5478 5477 5476 5476 5475 5474 5474 5473 5473 5472 5471 5471 5470 5469 5468 5467
5583 5583 5581 5580 5579 5578 5576 5575 5573 5571 5570 5568 5566 5564 5563 5561 5559 5557 5555 5553 5552 5550 5548 5545 5543 5542 5540 5539 5537 5535 5534 5532 5530 5528 5525 5522 5519 5517 5516 5515 5514 5512 5509 5506 5504 5503 5501 5499 5497 5495 5495 5493 5492 5491 5490 5488 5487 5486 5485 5484 5483 5482 5480 5479 5478 5477 5476 5475 5474 5474 5473 5472 5472 5471 5470 5470 5469 5468 5468 5468 5467 5466 5466 5465 5464 5463
5580 5579 5578 5577 5575 5574 5572 5571 5569 5567 5566 5564 5562 5560 5558 5556 5554 5553 5551 5549 5547 5545 5543 5540 5538 5536 5535 5533 5532 5530 5529 5528 5526 5523 5521 5518 5516 5513 5511 5511 5510 5508 5505 5502 5500 5498 5497 5495 5493 5491 5490 5489 5488 5486 5485 5484 5483 5482 5480 5479 5478 5477 5476 5475 5474 5473 5472 5471 5470 5469 5468 5468 5467 5466 5466 5465 5464 5464 5463 5463 5463 5462 5462 5461 5460 5459
5577 5576 5574 5573 5572 5570 5568 5567 5565 5563 5561 5559 5557 5556 5554 5552 5550 5548 5546 5544 5543 5540 5537 5535 5533 5532 5529 5528 5527 5525 5524 5523 5521 5519 5517 5514 5512 5509 5508 5507 5506 5504 5502 5499 5496 5494 5493 5491 5489 5488 5486 5485 5483 5482 5481 5480 5478 5477 5476 5475 5474 5473 5471 5470 5469 5468 5468 5467 5466 5465 5464 5463 5463 5462 5461 5461 5460 5460 5459 5459 5458 5458 5458 5457 5457 5456
5574 5573 5571 5570 5568 5567 5565 5563 5561 5559 5557 5555 5553 5551 5549 5547 5545 5543 5541 5539 5537 5535 5532 5530 5529 5527 5525 5523 5521 5520 5519 5518 5517 5514 5512 5510 5508 5505 5504 5503 5502 5501 5499 5497 5493 5490 5489 5488 5486 5485 5483 5481 5479 5478 5477 5476 5474 5473 5472 5471 5469 5468 5467 5466 5465 5464 5463 5462 5462 5461 5460 5459 5458 5458 5457 5457 5456 5456 5455 5455 5454 5454 5454 5453 5453 5452
5571 5569 5567 5566 5564 5563 5561 5559 5557 5555 5553 5551 5548 5546 5544 5542 5541 5538 5536 5534 5532 5530 5528 5525 5523 5522 5520 5518 5516 5515 5514 5513 5512 5510 5508 5506 5503 5501 5501 5500 5498 5497 5496 5494 5491 5488 5485 5483 5483 5482 5480 5478 5476 5475 5473 5472 5471 5469 5468 5467 5465 5464 5463 5462 5461 5460 5459 5458 5458 5457 5456 5455 5454 5454 5453 5453 5452 5452 5451 5451 5451 5450 5450 5449 5449 5448
5567 5565 5563 5562 5560 5558 5557 5555 5553 5551 5549 5547 5544 5542 5540 5538 5536 5533 5531 5529 5528 5525 5523 5521 5518 5517 5515 5513 5512 5510 5508 5508 5508 5506 5504 5503 5500 5498 5497 5496 5495 5493 5493 5492 5490 5487 5483 5480 5478 5478 5477 5475 5473 5471 5470 5469 5468 5466 5464 5463 5462 5460 5459 5458 5457 5456 5455 5454 5453 5453 5452 5451 5451 5450 5450 5449 5448 5448 5448 5447 5447 5446 5446 5445 5445 5444
5563 5562 5560 5558 5556 5554 5552 5550 5548 5546 5544 5542 5540 5538 5535 5533 5531 5529 5527 5524 5523 5521 5518 5516 5514 5512 5510 5508 5507 5505 5503 5503 5502 5501 5500 5498 5496 5494 5493 5493 5491 5490 5489 5489 5488 5486 5483 5479 5476 5474 5473 5472 5470 5468 5467 5466 5464 5463 5461 5460 5458 5457 5456 5455 5454 5453 5452 5451 5450 5449 5448 5448 5447 5447 5446 5445 5445 5444 5444 5443 5443 5442 5442 5441 5441 5441
5560 5558 5556 5554 5552 5550 5548 5546 5544 5542 5540 5538 5535 5533 5531 5529 5527 5524 5522 5520 5518 5516 5514 5512 5509 5507 5505 5503 5502 5500 5499 5498 5497 5497 5496 5494 5493 5491 5489 5489 5488 5487 5485 5485 5484 5483 5482 5479 5476 5473 5471 5469 5467 5465 5464 5463 5461 5460 5458 5457 5455 5453 5452 5451 5450 5449 5448 5447 5446 5446 5445 5444 5443 5443 5443 5442 5441 5441 5440 5439 5439 5438 5438 5438 5437 5437
5556 5554 5553 5550 5548 5546 5544 5542 5540 5538 5536 5533 5531 5528 5526 5524 5522 5520 5518 5515 5513 5511 5508 5507 5505 5503 5500 5498 5497 5495 5494 5494 5493 5492 5491 5490 5489 5487 5486 5485 5484 5483 5483 5481 5480 5480 5478 5477 5475 5473 5470 5468 5465 5463 5461 5459 5458 5457 5455 5453 5452 5450 5449 5448 5447 5446 5445 5444 5443 5442 5442 5441 5440 5440 5439 5439 5438 5438 5437 5436 5435 5435 5434 5434 5434 5433
5553 5551 5549 5547 5544 5542 5540 5538 5536 5533 5531 5529 5527 5524 5522 5519 5517 5515 5513 5510 5508 5506 5503 5502 5500 5498 5496 5494 5492 5491 5490 5489 5488 5488 5487 5486 5485 5484 5483 5482 5481 5480 5479 5478 5477 5476 5475 5473 5472 5471 5468 5466 5463 5461 5459 5457 5455 5453 5452 5450 5449 5448 5446 5445 5444 5443 5442 5441 5440 5439 5438 5438 5437 5437 5436 5435 5435 5434 5433 5433 5432 5432 5431 5431 5430 5430
5549 5547 5545 5543 5540 5538 5536 5533 5531 5529 5527 5524 5522 5519 5517 5515 5512 5510 5508 5505 5503 5501 5498 5496 5494 5493 5491 5489 5488 5487 5485 5484 5484 5483 5483 5482 5481 5480 5479 5478 5477 5477 5476 5474 5473 5473 5472 5470 5469 5468 5466 5464 5462 5459 5457 5455 5453 5451 5449 5448 5446 5445 5443 5442 5441 5440 5439 5438 5437 5436 5436 5435 5434 5434 5433 5433 5432 5431 5430 5429 5429 5428 5428 5427 5427 5427
5545 5543 5541 5538 5536 5534 5531 5529 5527 5524 5522 5519 5517 5515 5512 5510 5507 5505 5503 5500 5498 5496 5493 5492 5489 5488 5486 5485 5483 5482 5481 5480 5479 5479 5479 5478 5478 5477 5476 5474 5473 5473 5472 5471 5470 5469 5468 5467 5466 5464 5463 5461 5459 5458 5455 5453 5451 5449 5447 5445 5443 5442 5440 5439 5438 5437 5436 5435 5434 5433 5433 5432 5432 5431 5430 5430 5429 5428 5427 5427 5426 5425 5425 5424 5424 5423
5541 5539 5537 5534 5532 5529 5527 5524 5522 5520 5517 5515 5512 5510 5507 5505 5502 5500 5497 5495 5493 5491 5489 5487 5485 5483 5482 5480 5479 5478 5477 5476 5476 5475 5475 5474 5474 5473 5472 5471 5470 5469 5468 5468 5467 5466 5465 5463 5462 5461 5460 5458 5457 5455 5453 5451 5449 5447 5445 5443 5441 5439 5437 5436 5435 5434 5433 5432 5431 5431 5430 5429 5429 5428 5428 5427 5426 5425 5424 5423 5423 5422 5422 5421 5421 5420
5537 5535 5533 5530 5527 5525 5522 5520 5517 5514 5512 5509 5507 5504 5502 5499 5497 5494 5492 5490 5488 5486 5484 5482 5480 5479 5477 5476 5475 5474 5473 5473 5472 5471 5471 5470 5470 5469 5468 5468 5466 5465 5465 5464 5463 5462 5461 5460 5459 5458 5456 5455 5454 5452 5450 5448 5447 5445 5443 5441 5439 5437 5435 5433 5432 5430 5430 5429 5428 5428 5427 5426 5426 5425 5424 5424 5423 5422 5421 5420 5420 5419 5418 5418 5417 5417
5533 5531 5528 5526 5523 5520 5518 5515 5512 5509 5507 5504 5501 5499 5496 5494 5491 5488 5486 5484 5483 5481 5479 5477 5476 5474 5473 5472 5471 5470 5469 5469 5468 5468 5467 5467 5466 5465 5465 5464 5463 5462 5461 5460 5459 5458 5458 5456 5455 5454 5453 5452 5450 5449 5447 5445 5443 5442 5440 5439 5437 5435 5433 5430 5428 5427 5426 5426 5425 5424 5424 5423 5423 5422 5422 5421 5420 5419 5418 5418 5417 5416 5415 5415 5414 5413
5529 5526 5524 5521 5518 5515 5512 5510 5507 5504 5501 5498 5496 5493 5490 5488 5486 5483 5481 5479 5478 5476 5474 5473 5472 5470 5469 5468 5467 5466 5465 5465 5464 5464 5463 5463 5462 5461 5461 5460 5459 5458 5457 5456 5455 5455 5454 5453 5452 5450 5449 5448 5447 5446 5444 5442 5440 5438 5437 5436 5434 5433 5430 5428 5426 5424 5423 5422 5422 5421 5420 5420 5420 5419 5418 5418 5417 5416 5415 5415 5414 5413 5413 5412 5411 5411
5525 5522 5519 5516 5513 5510 5507 5504 5501 5498 5496 5493 5490 5488 5485 5483 5480 5478 5476 5474 5473 5472 5470 5469 5468 5466 5465 5463 5463 5462 5461 5461 5460 5460 5459 5458 5458 5458 5457 5456 5455 5454 5453 5453 5452 5451 5450 5449 5448 5447 5445 5444 5443 5442 5440 5438 5437 5435 5433 5432 5431 5429 5428 5425 5423 5421 5420 5419 5418 5418 5417 5417 5417 5416 5416 5415 5414 5413 5412 5412 5411 5410 5410 5409 5408 5408
5520 5518 5514 5512 5508 5505 5502 5499 5496 5493 5490 5487 5484 5482 5480 5478 5476 5473 5472 5470 5469 5468 5466 5465 5464 5463 5462 5460 5459 5458 5457 5457 5456 5456 5455 5454 5454 5453 5453 5452 5451 5450 5450 5449 5448 5447 5446 5445 5444 5443 5442 5440 5439 5438 5436 5435 5433 5431 5430 5428 5427 5426 5424 5423 5421 5419 5417 5416 5415 5414 5414 5414 5413 5413 5413 5412 5411 5410 5409 5408 5408 5407 5407 5406 5406 5405
5515 5513 5509 5507 5503 5500 5497 5494 5491 5488 5485 5482 5479 5477 5475 5473 5471 5469 5468 5466 5465 5463 5463 5461 5460 5459 5458 5457 5456 5454 5453 5453 5452 5451 5451 5450 5450 5449 5448 5448 5447 5446 5446 5445 5444 5443 5442 5441 5440 5439 5437 5436 5435 5434 5432 5431 5429 5428 5426 5425 5423 5422 5421 5419 5418 5416 5415 5413 5412 5411 5411 5410 5410 5410 5409 5409 5408 5407 5406 5405 5405 5404 5403 5403 5403 5402
5511 5508 5504 5501 5498 5495 5492 5488 5485 5483 5479 5477 5475 5472 5470 5468 5467 5465 5463 5462 5461 5459 5458 5458 5457 5456 5454 5453 5452 5451 5450 5448 5448 5447 5447 5446 5446 5445 5444 5443 5443 5442 5442 5441 5440 5439 5438 5438 5436 5435 5433 5432 5431 5430 5428 5427 5426 5424 5423 5421 5420 5418 5417 5416 5414 5413 5412 5411 5410 5408 5408 5407 5407 5407 5406 5406 5405 5404 5403 5402 5402 5401 5400 5400 5399 5399
5506 5503 5499 5496 5493 5490 5487 5483 5480 5477 5474 5472 5470 5468 5466 5464 5462 5461 5459 5458 5457 5456 5454 5454 5453 5452 5451 5449 5448 5448 5446 5445 5444 5443 5442 5442 5441 5440 5440 5439 5438 5438 5437 5437 5436 5435 5434 5433 5432 5431 5430 5428 5427 5426 5425 5423 5422 5421 5419 5418 5417 5415 5413 5412 5411 5410 5409 5408 5407 5406 5404 5404 5403 5403 5403 5403 5402 5401 5400 5399 5398 5398 5397 5396 5396 5396
5501 5498 5494 5491 5488 5484 5481 5478 5475 5473 5470 5467 5465 5463 5461 5459 5458 5456 5455 5454 5453 5452 5451 5450 5449 5448 5447 5446 5445 5444 5443 5442 5441 5439 5438 5438 5437 5436 5435 5435 5434 5433 5433 5432 5432 5431 5430 5429 5428 5427 5426 5424 5423 5422 5421 5419 5418 5417 5415 5414 5413 5412 5410 5409 5408 5406 5405 5404 5403 5402 5401 5401 5400 5400 5400 5400 5399 5398 5397 5396 5395 5394 5393 5393 5393 5392
5496 5493 5489 5486 5483 5479 5476 5473 5470 5468 5465 5463 5460 5458 5457 5455 5454 5453 5451 5450 5449 5448 5448 5447 5446 5445 5443 5443 5442 5441 5440 5438 5437 5436 5435 5434 5433 5432 5431 5430 5430 5429 5428 5428 5427 5427 5426 5424 5423 5422 5421 5420 5419 5418 5417 5416 5414 5413 5411 5410 5409 5408 5407 5405 5404 5403 5402 5401 5400 5399 5398 5398 5397 5397 5397 5397 5396 5396 5395 5393 5392 5391 5390 5389 5389 5388
5491 5488 5484 5481 5478 5474 5471 5468 5466 5463 5461 5458 5456 5454 5452 5451 5450 5448 5447 5446 5445 5445 5444 5443 5442 5441 5440 5439 5438 5438 5437 5435 5434 5433 5431 5430 5429 5428 5427 5426 5426 5425 5424 5424 5423 5423 5422 5421 5419 5418 5416 5415 5414 5413 5413 5412 5410 5408 5407 5406 5405 5403 5403 5402 5400 5399 5398 5397 5396 5395 5394 5394 5393 5393 5393 5393 5393 5393 5392 5391 5389 5388 5386 5385 5385 5385
5486 5483 5479 5476 5473 5470 5467 5464 5461 5458 5456 5454 5452 5450 5448 5447 5445 5444 5443 5443 5442 5441 5440 5439 5438 5437 5436 5435 5434 5433 5433 5432 5430 5429 5428 5427 5425 5424 5423 5423 5422 5421 5421 5420 5419 5419 5418 5417 5416 5414 5413 5411 5410 5409 5408 5408 5406 5405 5403 5402 5400 5399 5398 5398 5397 5395 5394 5393 5393 5392 5391 5390 5390 5390 5390 5390 5390 5390 5389 5388 5387 5385 5383 5382 5382 5382
5481 5478 5474 5471 5468 5465 5462 5459 5457 5454 5452 5450 5448 5446 5444 5443 5441 5440 5439 5438 5438 5437 5436 5435 5435 5433 5433 5431 5431 5430 5429 5428 5426 5425 5424 5423 5422 5421 5419 5419 5418 5418 5417 5416 5415 5415 5414 5413 5412 5411 5409 5407 5406 5405 5404 5403 5402 5401 5399 5398 5397 5396 5394 5394 5393 5392 5391 5390 5389 5388 5388 5387 5387 5386 5386 5386 5386 5386 5386 5386 5384 5383 5381 5380 5379 5379